Weather in Ostrov

Russia / Vologda Oblast     60°33′17″N   37°52′56″E
temp.,
°C
wind,
m/s
gust,
m/s
humid.,
%
clouds,
%
prec.,
mm/h
press.,
hPa
HPBL,
m
24 january, mon
mon2400:00−12sw4139490 0.0 1030361
03:00−12ssw4139396 0.0 1029327
06:00−11ssw4139465 0.0 1028341
09:00−9ssw41393100 0.1 1028399
12:00−7ssw51394100 0.0 1026394
15:00−6ssw51493100 0.1 1025452
18:00−5ssw61693100 0.1 1023527
21:00−5ssw61693100 0.1 1021587
25 january, tue
tue2500:00−5ssw61694100 0.3 1019635
03:00−5ssw61594100 0.8 1016607
06:00−5ssw51494100 0.5 1014601
09:00−5ssw51295100 1.4 1012558
12:00−5ssw41195100 2.0 1011467
15:00−5ssw3896100 3.4 1010385
18:00−5ssw3797100 0.6 1010241
21:00−4w2797100 1.3 1011247
26 january, wed
wed2600:00−5nnw4109382 0.4 1013450
03:00−12nnw39955 0.4 1015180
06:00−17nw259827 0.0 101778
09:00−18nw259930 0.0 101763
12:00−12nw25925 0.0 1017119
15:00−11wsw12966 0.0 101743
18:00−19sw1110067 0.0 10179
21:00−21ssw11100100 0.0 101710
27 january, thu
thu2700:00−20sw24100100 0.0 101641
03:00−18ssw2598100 0.0 101572
06:00−15s2894100 0.0 1013136
09:00−12s31091100 0.0 1012225
12:00−10s4138593 0.0 1011416
15:00−9sse4138495 0.0 1009485
18:00−10sse51584100 0.0 1008521
21:00−10sse51487100 0.0 1006546
28 january, fri
fri2800:00−10sse41394100 0.4 1005562
03:00−10sse41194100 0.9 1005478
06:00−11sse31094100 0.3 1004400
09:00−11se3994100 0.4 1004359
12:00−10se3894100 0.2 1004347
15:00−9se3794100 0.4 1003370
18:00−9ese3895100 0.3 1004329
21:00−9ese2796100 0.8 1004321